FENGYUN 1C DEB, 31217

Orbit data source: Space-Track

FENGYUN 1C DEB, 31217 is space debris in SSO originally from a launch on Mon, 10 May 1999 UTC launched from the Taiyaun Space Center, China (TSC). Fengyun 1C debris stems from the Chinese weather satellite Fengyun-1C, which was intentionally destroyed by a Chinese anti-satellite missile in 2007. This event dramatically increased the amount of space debris, with thousands of trackable fragments posing hazards to satellites and human spaceflight. The Fengyun 1C debris cloud has become a focal point in discussions about space sustainability and the need for international regulations to prevent the creation of new debris.

Loading next visibility...
Identifier
31217, 1999-025BKX
Orbit
SSO
Country
Flag of CNCN / PRC
Related business
Manufacturer
Unknown
Mission
Spacecraft
Bus & Motor
Unknown
Mass
Unknown
Launch date (UTC)
1999-05-10 (27 years ago)
Launch vehicle
Unknown
Launch site
Taiyaun Space Center, China (TSC)
Object type
Payload
Rocket body
Debris
Shape & HBR
Unknown shape, 0.1 m
Radar Cross Section
Small (<0.1 m²)

Expand to show TLE details & history
Last TLE update: 4 days ago

TLE from 4 days ago
0 FENGYUN 1C DEB
1 31217U 99025BKX 26034.45894182  .00001747  00000-0  83717-3 0  9993
2 31217  98.6404  45.9057 0099227   9.6047 350.6996 14.17716454970950
Epoch: 2026-02-03T11:00Z
TLE epoch observation values (Epoch: 2026-02-03T11:00:52.573Z)
Latitude
0.00002°
Longitude
107.04707°
Altitude
765.39 km
Speed
7.508 km/s
True Right ascension
03h 03m 37s
True Declination
0° 00' 00"
Sunlit
Object was in daylight at epoch
Visualization orbit readout
Latitude
Unknown
Longitude
Unknown
Altitude
Unknown
Speed
Unknown
Apparent Right ascension
Unknown
Apparent Declination
Unknown
Sunlit
N/A
Visualization observer readout
Local Sidereal Time
01:38:56
Azimuth
Unknown
Elevation
Unknown
Doppler factor
Unknown
Orbital elements
Apogee altitude
901.77 km
Perigee altitude
758.717 km
Semi-major axis
7,208.381 km
Eccentricity
0.00992
Inclination
98.6404°
RAAN
45.9057°
Arg. of periapsis
9.6047°
True anomaly
350.51356°
Mean anomaly
350.6996°
Eccentric anomaly
350.60681°
Mean motion
3.54639 °/min
Orbital period
101.51 mins
BSTAR
0.00083717
Loading maneuver chart data...
Computing Atmospheric mass density...

Documentation

Showing up to 5 results
|